Location: Austin, TX
(30.3000°N, 97.7500°W)
Time: 02:24:04
(UTC-06:00)

Daily predictions for brighter satellites

Satellite Brightness Start Highest point End
(mag) Time Altitude Azimuth Time Altitude Azimuth Time Altitude Azimuth
Cosmos 2278 Rocket 4.4 04:00:57 21° ESE 04:00:57 21° ESE 04:03:00 10° SE
USA 215 4.5 03:52:53 10° NE 03:56:46 35° ENE 03:56:46 35° ENE
CZ-3C R/B 3.4 04:18:21 48° S 04:19:38 51° SSE 05:10:41 10° E
CZ-3C R/B 3.4 04:18:20 48° S 04:19:38 51° SSE 05:10:41 10° E
H-II Stage 2 4.5 04:23:38 48° SSW 04:26:22 63° SSE 10:19:27 10° ESE
Lacrosse 5 4.0 04:33:41 16° SSE 04:36:17 24° ESE 04:40:21 10° ENE
Thor Agena Rocket 4.1 04:43:33 10° SSE 04:48:25 52° ENE 04:48:38 51° ENE
Feng Yun 1-1 Rocket 4.2 04:52:12 10° NNE 04:57:47 79° ESE 05:03:12 10° S
BREEZE-M DEB (TANK) 3.6 05:00:12 65° E 05:00:12 65° E 05:07:26 10° NE
Cosmos 2151 Rocket 4.2 04:58:24 10° S 05:02:48 55° E 05:07:12 10° NNE
Gbstr 26 Del rocket 4.1 05:05:09 38° NE 05:05:11 38° NE 05:09:04 10° ESE
Meteor 1-20 Rocket 4.3 05:06:45 10° S 05:12:20 72° E 05:17:51 10° NNE
DELTA 2 R/B (1) 3.6 05:13:21 61° NNW 05:14:03 69° NNE 05:19:36 10° ESE
Cosmos 2181 Rocket 3.9 05:11:58 32° NNW 05:15:04 74° W 05:21:21 10° S
USA 32 4.4 05:19:09 10° N 05:24:20 64° E 05:29:31 10° SSE
Cosmos 972 4.3 05:23:16 44° NNW 05:24:56 76° WSW 05:29:55 10° S
Centaur AC-42 4.2 05:23:26 10° SSW 05:25:53 14° S 05:28:04 10° SE
Cosmos 2297 3.5 05:24:46 39° NNW 05:26:57 78° WSW 05:32:35 10° SSE
Ariane Rocket 4.3 05:22:33 10° NNE 05:27:19 41° E 05:32:03 10° S
Cosmos 1536 Rocket 4.2 05:24:46 11° N 05:28:59 54° E 05:33:15 10° SSE
Cosmos 2278 Rocket 3.5 05:42:53 21° WSW 05:42:53 21° WSW 05:45:59 10° SSW
USA 215 3.8 05:36:06 10° NNE 05:41:58 37° NW 05:44:09 29° WNW
Okean 1 Rocket 3.9 05:38:16 10° S 05:42:33 53° E 05:46:50 10° NNE
Abrixas rocket 2.3 05:44:25 58° NNW 05:44:25 58° NNW 05:47:33 10° NE
SL-16 R/B 3.9 05:47:25 15° NNW 05:47:25 15° NNW 05:48:52 10° NNW
Okean 1 3.4 05:42:07 12° N 05:45:47 79° E 05:49:48 10° S
Meteor 1-11 Rocket 4.4 05:40:56 10° S 05:46:43 60° E 05:52:24 10° NNE
SJ-6F 4.5 05:42:59 10° N 05:46:56 51° WNW 05:50:52 10° SSW
COSMO-SKYMED 1 2.9 05:44:21 10° SSE 05:48:38 68° ENE 05:52:57 10° N
Cosmos 1602 4.1 05:44:53 10° S 05:48:46 65° E 05:52:41 10° NNE
Cosmos 921 Rocket 3.1 05:44:57 14° N 05:48:49 81° ENE 05:53:19 10° SSE
CZ-3 R/B 2.6 05:36:26 10° WSW 05:50:56 48° S 05:55:14 10° E
Iridium 2 4.1 05:49:15 10° SSW 05:52:48 38° W 05:53:01 38° WNW
Cosmos 1812 2.8 05:52:19 31° NW 05:53:46 49° W 05:57:29 10° SSW
Cosmos 44 4.1 05:50:52 10° SSW 05:56:09 59° ESE 06:01:21 10° NE
CENTAUR R/B 4.3 06:00:00 12° NNW 06:00:00 12° NNW 06:01:54 10° NNW
Cosmos 1238 Rocket 3.9 05:57:07 12° NNW 06:01:37 46° W 06:07:19 10° SSW
Cosmos 1346 Rocket 2.6 05:58:51 10° N 06:02:45 77° W 06:06:41 10° S
Cosmos 1633 2.5 05:59:53 10° S 06:03:32 87° WNW 06:07:11 10° N
Nadezhda 3 Rocket 4.4 06:00:32 10° N 06:06:53 69° E 06:13:12 10° SSE
ASTRO E2 4.1 06:07:10 10° SW 06:10:54 37° SSE 06:14:37 10° E
Meteor 1-28 Rocket 3.6 06:08:22 10° SSE 06:12:06 65° ENE 06:15:52 10° N
USA 129 4.3 06:11:02 10° SE 06:12:31 19° ENE 06:14:05 10° NNE
Cosmos 1300 Rocket 3.8 06:08:24 10° SSW 06:12:40 47° W 06:16:56 10° N
SWIFT 4.5 06:12:17 10° SW 06:15:16 18° S 06:18:15 10° SE
Cosmos 962 Rocket 4.5 06:12:22 10° S 06:18:30 88° W 06:24:45 10° N
Lacrosse 5 2.4 06:14:16 10° WSW 06:19:00 38° NW 06:23:46 10° NNE
CZ-4 R/B 2.4 06:15:38 10° NNE 06:19:26 48° E 06:23:11 10° S
Cosmos 2341 Rocket 4.0 06:13:31 10° S 06:19:50 86° W 06:26:09 10° N
Centaur AC-116 4.3 06:18:45 11° W 06:21:54 20° SSW 06:23:53 10° SSE
Cosmos 1536 2.7 06:21:06 10° SSW 06:25:02 71° W 06:29:02 10° N
Cosmos 44 Rocket 4.0 06:25:15 10° SW 06:29:58 35° WNW 06:34:41 10° N
Meteor 2-4 Rocket 4.0 06:28:37 10° N 06:34:09 73° E 06:39:50 10° SSE
SKYMED 2 4.5 06:33:00 10° SSW 06:36:45 29° W 06:40:32 10° NW
CSL-04 Rocket 4.0 06:32:26 10° N 06:37:43 47° WNW 06:42:56 10° SW
Meteor 1-5 Rocket 4.3 06:33:26 10° S 06:38:52 81° E 06:44:12 10° N
CSL-04 Debris 4.3 06:33:48 10° N 06:39:07 55° WNW 06:44:26 10° SSW
PAYLOAD A 4.1 06:34:41 10° N 06:40:05 77° WNW 06:45:30 10° SSW
IRS-1A Rocket 4.3 06:35:06 10° N 06:40:47 69° WNW 06:46:34 10° SSW
SL-24 DEB 4.5 06:38:59 10° S 06:43:37 52° W 06:48:17 10° NNW
Helios 1B rocket 3.5 06:44:49 10° SSE 06:48:48 49° ENE 06:52:49 10° N
Cosmos 2369 Rocket 2.6 06:43:50 10° NNW 06:49:33 71° ENE 06:55:12 10° SSE
USA 229 DEB 3.7 06:43:13 10° SW 06:50:02 72° WNW 06:56:59 10° NNE
USA 229 3.7 06:43:19 10° SW 06:50:09 72° WNW 06:57:05 10° NNE
Cosmos 2056 Rocket 3.9 06:45:47 10° NNW 06:50:36 42° W 06:55:23 10° S
SPOT 3 Rocket 3.7 06:45:51 10° NNE 06:51:00 83° ESE 06:56:09 10° SSW
